Lapse_Rate
8.5 8.8 8.7 8.6 8.8 8.6 8.7 9.0 8.7 8.7 8.6 8.5 8.7 8.6 8.4 8.2 8.1 7.7 7.6 7.2 7.0 6.6 6.2 6.0 5.9 5.9 5.6 5.7 5.6 5.7 5.6 5.8 6.0 6.1 6.0 6.0 5.8 5.8 5.8 5.7 5.5 5.5 5.5 5.5
8.4 8.5 8.7 8.6 8.8 8.5 8.8 8.8 8.9 8.8 8.5 8.5 8.7 8.9 8.5 8.3 8.4 8.2 7.9 7.6 7.1 6.8 6.5 6.3 6.1 5.9 5.8 5.9 5.8 5.7 5.5 5.8 5.9 5.9 5.9 5.8 5.9 5.5 5.6 5.6 5.6 5.7 5.6 5.7
8.4 8.6 8.6 8.8 8.6 8.6 8.7 8.9 8.9 8.5 8.7 8.8 8.5 8.9 9.2 8.9 8.6 8.4 8.3 7.9 7.2 7.1 7.0 6.6 6.5 6.3 6.0 6.1 6.2 6.2 5.9 5.9 5.9 6.0 6.1 5.9 5.8 5.6 5.6 5.9 5.9 5.8 5.8 5.6
8.5 8.7 8.7 8.7 8.9 8.9 9.1 9.1 8.9 8.8 8.6 8.4 8.4 8.9 9.2 9.2 9.1 8.8 8.5 8.4 8.0 7.5 7.1 6.8 6.8 6.8 6.3 6.2 6.1 6.3 6.3 6.2 6.0 6.1 6.1 5.9 6.0 6.1 6.1 6.3 6.1 6.1 5.8 5.6
8.4 8.8 8.8 8.7 8.9 9.0 9.1 9.1 9.1 9.0 8.7 8.3 8.5 8.1 9.1 9.1 9.2 9.1 8.8 8.5 8.4 8.2 7.9 7.4 7.1 6.8 6.6 6.4 6.5 6.4 6.3 6.2 6.4 6.2 6.2 6.1 6.1 6.1 6.3 6.2 5.9 6.0 5.9 5.8
8.6 8.7 8.9 8.9 9.0 9.0 9.2 9.3 9.2 9.1 8.7 8.7 8.6 8.4 8.9 9.0 9.1 8.8 9.0 8.7 8.3 8.3 8.0 7.6 7.2 7.0 6.8 6.8 7.3 7.1 6.8 6.4 6.2 6.3 6.4 6.2 5.8 5.9 6.2 6.3 5.9 5.9 5.8 5.7
8.4 8.6 8.8 9.0 9.0 9.0 9.0 8.8 9.4 9.3 9.2 9.4 8.7 8.4 9.1 9.0 8.8 8.9 8.6 8.6 8.2 7.7 7.7 7.5 7.2 7.5 7.1 7.3 7.3 7.2 7.5 6.9 6.5 6.7 6.6 6.3 6.3 6.0 5.6 5.8 6.0 5.8 5.8 6.0
8.5 8.7 8.7 9.0 9.2 9.0 9.1 8.9 9.2 9.2 9.5 9.5 8.7 8.9 9.5 9.4 9.1 8.8 8.8 8.7 8.5 8.1 7.8 7.9 7.8 7.4 7.3 7.2 7.4 7.5 7.2 7.5 7.3 7.1 7.1 7.0 6.8 6.7 6.5 6.2 5.9 5.7 5.6 5.9
8.4 8.6 8.9 9.1 9.3 9.2 9.0 8.4 9.0 9.3 8.8 8.8 8.6 9.2 9.6 9.6 9.4 8.9 8.8 8.7 8.6 8.3 8.0 7.7 7.4 7.1 7.3 7.3 7.3 7.6 7.8 7.5 7.5 7.6 7.3 7.3 7.2 7.2 7.0 6.8 6.6 6.2 5.7 5.3
8.6 8.9 9.2 9.3 9.3 9.5 9.3 9.3 9.0 9.1 9.2 9.2 8.6 8.6 9.5 9.5 9.3 9.1 8.8 8.5 8.4 8.2 8.2 7.8 7.4 7.1 7.0 7.0 7.1 7.3 7.4 7.3 7.0 6.6 6.8 7.1 7.3 7.3 7.2 7.0 7.0 7.0 6.5 6.4
8.5 8.7 9.0 9.2 9.2 9.4 9.3 9.0 9.1 8.9 9.0 9.8 9.6 9.4 9.3 9.2 9.2 9.1 8.8 8.6 8.5 8.3 8.1 7.9 7.3 6.9 6.7 6.6 6.8 7.1 7.2 7.3 7.0 6.4 5.9 6.4 6.6 6.6 6.7 6.9 6.8 7.0 6.7 6.8
8.5 8.7 8.8 9.2 9.3 9.2 9.2 9.1 9.0 9.5 8.6 8.8 8.7 9.2 9.3 9.2 9.3 9.1 9.0 8.9 8.6 8.3 7.9 7.5 6.7 6.5 6.3 6.2 6.4 6.5 6.6 6.8 6.7 6.7 6.0 6.4 6.5 6.1 6.3 6.5 6.5 6.8 6.3 6.6
8.5 8.7 9.0 9.0 9.0 9.0 9.0 9.1 9.2 9.2 9.3 9.0 9.3 9.6 9.4 9.4 9.4 9.0 8.7 8.5 8.2 7.9 7.7 7.1 6.3 6.1 6.2 6.4 6.5 6.4 5.9 5.6 5.7 5.7 5.5 5.6 5.7 6.5 6.8 6.7 6.5 5.7 6.4 6.0
8.7 8.9 9.0 9.5 9.6 9.3 9.1 9.2 9.1 9.1 9.1 9.1 8.9 9.2 9.4 9.3 9.3 8.8 8.6 8.4 8.2 7.9 7.6 7.1 6.7 6.6 6.8 6.8 6.2 5.8 5.7 5.8 6.0 4.9 5.5 5.3 5.4 6.5 6.7 6.9 6.1 5.6 6.0 5.7
8.8 8.9 9.0 9.1 9.2 9.1 9.1 9.1 9.0 8.8 8.9 8.9 8.9 9.0 9.2 9.2 9.0 8.8 8.5 8.4 8.1 7.6 7.0 6.6 6.7 6.7 6.7 6.8 6.6 6.1 6.0 6.0 6.2 5.7 5.9 5.7 5.8 6.0 6.9 6.4 5.0 5.2 5.8 6.1
9.0 9.0 9.1 9.0 9.1 9.0 8.9 9.0 8.9 8.7 8.7 8.5 8.3 8.6 9.0 9.2 9.0 8.7 8.6 8.3 7.8 7.2 6.9 6.6 6.5 6.4 6.4 6.4 6.4 5.9 5.9 5.8 5.6 5.8 5.9 6.2 5.9 5.9 5.6 5.8 5.8 5.8 5.4 5.3
9.0 9.0 9.0 8.8 8.6 8.6 8.7 8.9 8.8 8.9 8.7 8.6 8.5 8.7 9.0 9.0 8.8 8.6 8.3 8.0 7.6 7.2 7.0 6.8 6.5 6.2 6.2 6.0 6.0 6.0 6.0 5.9 5.8 5.8 5.8 5.7 5.7 5.5 5.4 5.3 5.4 5.6 5.4 5.2
9.5 9.0 8.7 8.5 8.4 8.9 9.1 8.9 8.8 8.8 8.7 8.5 8.5 8.6 8.9 8.7 8.5 8.4 8.0 7.6 7.7 7.7 7.4 7.2 6.9 6.5 6.3 6.1 6.0 5.8 5.8 5.8 5.9 5.8 5.7 5.5 5.7 5.7 5.5 5.3 5.0 5.1 5.2 5.2
8.8 8.8 8.7 8.5 8.7 8.7 8.6 8.8 9.0 8.8 8.5 8.4 8.5 8.5 8.6 8.6 8.4 8.3 7.8 7.4 7.2 7.3 7.6 7.4 7.1 6.9 6.6 6.3 6.2 6.2 6.0 5.9 6.0 5.7 5.6 5.6 5.8 5.8 5.8 5.5 5.4 5.3 5.3 5.4
8.9 9.1 9.3 8.9 8.9 9.0 8.9 8.9 8.9 8.8 8.5 8.4 8.3 8.4 8.4 8.2 7.9 7.8 7.5 7.2 7.2 7.1 7.2 7.2 7.0 6.8 6.6 6.4 6.2 6.0 5.9 5.7 5.5 5.5 5.6 5.5 5.5 5.4 5.3 5.3 5.4 5.5 5.7 5.9
8.8 9.0 9.0 8.9 8.6 8.6 8.6 8.9 8.9 8.9 8.5 8.2 8.1 8.1 8.0 7.9 7.7 7.5 7.3 7.1 7.1 7.0 6.9 6.9 6.7 6.4 6.2 6.2 5.9 5.8 5.6 5.3 5.5 5.5 5.4 5.2 5.2 5.2 5.4 5.5 5.6 5.7 5.7 5.7
8.9 8.7 8.4 8.3 8.3 8.6 8.7 8.5 8.9 8.6 8.3 8.1 7.9 7.8 7.7 7.6 7.5 7.3 7.2 7.1 7.0 6.9 6.7 6.5 6.3 6.0 5.9 5.8 5.7 5.6 5.5 5.6 5.5 5.4 5.4 5.5 5.5 5.5 5.5 5.5 5.5 5.5 5.5 5.6
8.5 8.5 8.6 8.5 8.6 8.6 8.8 8.8 8.8 8.4 8.0 7.9 7.8 7.6 7.4 7.4 7.2 7.2 7.1 6.9 6.8 6.8 6.6 6.5 6.3 6.1 6.0 5.8 5.5 5.4 5.5 5.7 5.8 5.8 5.9 5.8 5.8 5.7 5.7 5.6 5.6 5.6 5.5 5.5
8.5 8.3 8.4 8.5 8.5 8.8 8.6 8.6 8.5 8.3 7.9 7.8 7.7 7.5 7.4 7.1 7.0 7.0 6.8 6.9 6.8 6.6 6.5 6.2 6.0 6.0 5.9 5.8 5.9 5.9 5.9 5.8 5.8 5.8 5.8 5.8 5.8 5.8 5.8 5.6 5.5 5.4 5.3 5.3
8.4 8.4 8.4 8.4 8.3 8.3 8.3 8.4 8.4 8.3 7.9 7.6 7.3 7.1 7.0 6.9 6.8 6.7 6.7 6.6 6.5 6.4 6.2 6.1 6.0 6.0 5.9 5.8 5.8 5.9 6.0 6.0 5.9 5.7 5.6 5.5 5.3 5.2 5.0 4.8 4.7 4.7 4.7 4.7
8.3 8.3 8.1 8.0 8.0 8.1 8.0 8.2 8.1 8.2 7.8 7.2 7.0 6.9 6.8 6.7 6.6 6.5 6.4 6.3 6.1 6.1 6.0 5.9 5.9 5.9 5.9 5.8 5.8 5.9 5.8 5.7 5.5 5.5 5.4 5.3 5.1 4.9 4.7 4.7 4.8 4.7 4.8 4.7
Wind_Speed
3 3 5 1 1 2 2 5 8 8 8 11 13 9 10 15 14 13 13 13 14 15 14 12 14 14 14 14 13 14 13 12 9 7 6 7 8 6 6 9 12 12 12 10
3 4 3 3 3 4 5 3 6 7 9 12 5 13 10 15 20 17 15 15 16 15 12 12 14 14 15 15 15 15 14 13 12 9 6 5 4 4 6 8 11 13 13 13
5 2 5 2 4 6 6 4 2 4 4 5 1 7 10 12 16 16 16 16 15 16 16 14 14 15 13 14 16 15 14 15 13 12 7 4 3 2 5 5 6 8 13 14
4 3 5 3 3 5 2 5 5 2 3 1 5 4 5 7 13 16 19 17 17 18 16 14 15 14 15 15 13 14 14 14 12 12 9 10 8 6 3 3 4 4 9 11
6 8 7 7 3 3 2 2 3 3 4 2 4 4 3 1 9 17 18 19 18 19 17 15 16 16 13 11 13 12 12 12 11 12 11 9 10 8 6 4 5 4 4 7
4 0 3 4 2 3 2 3 4 4 1 3 2 5 8 5 2 2 6 17 17 14 13 12 12 11 11 11 13 13 12 11 11 12 13 13 11 10 8 6 7 5 3 3
4 6 2 4 4 4 4 1 2 3 4 1 3 5 8 5 3 5 8 7 12 10 11 10 11 12 12 13 11 11 12 12 12 12 11 10 10 8 10 8 6 6 4 4
11 11 8 6 8 8 4 2 7 3 2 2 1 5 4 3 3 7 9 2 4 8 11 13 11 7 7 9 11 12 11 11 13 12 10 7 8 6 6 8 8 6 5 4
7 8 2 4 2 2 5 11 3 2 0 3 2 4 11 3 1 9 11 9 7 8 8 9 9 8 9 7 4 8 8 9 9 9 8 8 7 6 2 3 5 5 4 5
5 7 2 4 5 4 4 8 6 3 4 5 3 3 5 4 6 10 9 9 9 9 10 8 8 9 7 6 5 4 8 11 11 12 8 7 9 8 6 4 6 5 5 1
6 2 4 3 3 5 5 5 3 3 1 3 4 3 4 4 6 9 8 7 8 10 9 8 8 7 6 7 7 6 6 7 6 7 4 8 7 7 6 6 7 7 6 4
7 2 4 0 1 2 0 1 5 5 5 1 3 4 1 1 6 8 11 9 8 9 9 8 8 9 8 8 7 6 6 5 0 3 5 8 6 10 8 4 5 4 9 3
9 4 3 3 2 2 5 4 2 3 2 5 4 5 3 3 6 8 11 9 8 7 7 6 5 5 7 7 4 3 4 3 6 4 2 6 8 6 2 3 5 7 9 10
15 5 7 7 2 2 5 7 6 3 3 5 7 7 5 5 6 9 11 11 9 7 7 6 5 5 5 4 3 3 2 3 3 5 4 3 6 3 4 6 8 8 9 8
11 10 5 2 2 1 2 9 10 8 4 6 4 7 3 7 9 7 7 9 9 9 9 6 6 4 2 4 5 3 1 3 3 3 3 4 4 1 9 10 8 8 4 6
4 5 4 3 2 1 3 5 9 7 3 7 6 8 2 2 8 8 7 8 7 9 10 7 9 8 8 7 7 4 3 7 7 4 0 4 6 10 9 7 6 3 3 2
11 9 7 7 2 3 4 9 9 4 5 5 6 0 9 8 9 9 8 7 7 9 11 8 8 7 7 9 9 8 8 9 9 7 7 10 10 10 9 8 8 9 9 8
10 10 3 5 6 6 2 2 5 8 4 8 4 1 6 6 8 8 6 7 7 9 9 7 7 8 7 7 9 9 9 9 9 10 10 10 9 8 8 8 8 7 7 8
6 6 4 4 9 2 2 4 6 7 4 8 8 6 7 10 10 7 5 6 9 8 7 6 6 7 8 8 8 9 10 9 9 9 8 8 8 8 9 11 11 10 9 9
5 5 4 4 5 8 4 5 3 3 2 5 7 10 13 13 7 6 10 12 12 10 8 8 9 9 9 7 7 9 9 9 9 8 8 9 8 8 7 6 6 6 7 8
3 3 5 4 3 1 2 3 3 4 2 5 8 11 15 8 3 16 14 13 12 12 12 11 9 9 7 6 7 8 7 7 5 6 6 7 5 5 6 7 6 8 8 9
5 5 3 3 3 3 7 9 3 2 3 6 7 10 11 12 14 14 14 14 14 14 11 9 9 8 7 5 5 7 7 5 5 6 7 7 8 7 7 8 7 9 9 9
3 2 2 5 2 1 2 1 3 4 1 5 9 11 15 16 15 15 14 14 12 12 9 7 8 7 6 5 4 5 5 4 5 6 7 7 6 6 6 8 9 8 9 9
2 2 2 4 3 2 4 1 3 3 2 7 10 15 16 18 16 15 13 12 10 8 7 6 6 6 5 4 4 4 3 2 2 3 4 4 4 6 6 6 7 8 9 10
1 4 4 0 2 4 5 6 6 7 9 14 13 13 14 17 16 15 13 11 9 8 6 6 6 6 6 6 4 4 3 3 2 2 3 4 5 6 7 7 7 8 9 8
5 5 3 2 3 0 1 7 10 13 13 15 18 16 14 16 15 14 11 9 8 8 7 7 7 7 6 6 5 5 4 5 5 5 5 5 6 6 7 8 9 7 13 15
Wind_Direction
34 208 98 96 107 275 235 247 254 232 186 209 230 232 213 191 204 210 205 210 216 216 221 209 211 209 208 207 203 212 205 207 205 209 217 232 235 235 232 238 245 241 241 240
155 203 162 141 143 209 245 224 265 289 188 203 210 244 229 195 210 210 209 214 218 229 219 212 211 204 207 206 207 211 211 205 207 211 217 224 227 233 248 227 229 233 236 237
200 130 115 159 168 217 206 221 244 294 82 168 185 266 230 217 217 209 219 222 226 226 224 215 214 213 207 208 205 210 204 207 208 210 210 202 214 221 243 224 229 226 231 237
243 163 209 128 233 236 258 198 170 169 188 270 227 297 246 240 225 214 217 217 219 225 226 221 214 212 210 212 210 208 201 207 206 200 210 215 229 235 243 280 249 221 224 237
193 164 160 236 241 186 360 193 63 191 148 273 184 265 299 326 243 234 224 225 221 223 219 215 214 215 209 204 202 207 205 204 206 202 208 210 222 233 236 249 260 246 240 239
171 43 233 223 122 250 146 81 79 87 205 258 9 242 289 275 354 352 266 236 232 224 223 219 216 208 202 200 196 201 197 200 209 205 206 210 212 226 235 228 255 246 260 242
184 200 184 216 171 173 74 283 221 180 192 296 3 210 273 275 333 294 314 294 245 211 181 188 194 199 199 196 202 199 202 204 206 214 215 218 230 235 257 255 253 265 250 266
198 213 213 169 231 200 165 277 292 270 251 133 146 224 261 333 326 349 17 5 133 165 166 182 179 188 200 194 204 213 207 204 203 205 195 202 225 230 240 258 262 271 282 248
176 223 224 217 139 153 145 205 238 144 101 236 182 256 277 313 328 63 65 82 107 138 133 112 116 131 122 115 135 216 218 221 205 191 178 170 166 150 156 228 218 257 247 257
174 204 189 118 116 63 223 143 178 223 227 251 192 268 252 317 52 70 75 93 113 123 124 114 105 107 101 94 106 143 170 176 169 170 178 156 154 158 164 117 89 54 4 331
163 247 148 190 199 170 151 184 70 110 286 262 270 245 219 240 52 82 92 91 108 123 113 103 93 101 119 118 102 113 149 167 145 165 176 181 204 226 196 176 142 109 52 244
185 192 228 204 73 18 141 206 203 249 185 67 314 260 127 120 100 121 112 103 104 135 140 138 139 141 144 131 133 143 162 166 91 0 303 264 223 227 252 182 153 125 73 37
172 206 173 153 165 153 228 161 140 163 136 183 245 262 124 131 128 115 117 112 112 133 141 144 156 148 137 125 97 71 43 57 101 88 138 297 293 297 319 98 21 40 53 10
167 177 220 225 112 128 183 163 181 286 206 171 233 273 204 169 156 136 122 125 129 149 154 161 165 170 161 157 181 184 119 25 86 104 76 301 331 344 55 12 19 8 41 255
175 210 199 329 309 185 224 175 175 205 233 241 347 241 49 190 174 136 118 124 133 141 156 144 123 151 205 233 216 189 317 261 191 138 244 301 35 78 31 20 345 2 289 247
187 181 156 122 63 217 215 195 206 221 209 252 262 279 153 156 123 137 144 132 136 143 150 127 118 114 87 95 132 117 105 144 170 164 341 55 50 35 28 15 358 358 352 335
169 159 177 214 136 166 228 207 199 189 203 259 224 89 158 157 154 153 150 149 133 134 148 138 135 117 110 114 120 112 98 101 102 102 73 57 56 55 46 37 29 25 20 13
157 149 161 146 166 205 106 280 241 222 242 212 267 240 173 138 127 138 140 147 136 124 123 130 132 123 115 112 110 116 111 101 88 64 50 42 43 45 37 32 27 22 6 356
206 137 119 174 205 2 163 181 164 194 201 200 205 148 143 127 126 112 128 158 131 116 114 115 105 105 109 113 118 113 100 98 89 71 62 49 35 30 23 17 8 3 349 336
80 90 169 145 192 217 179 169 191 194 258 190 181 165 156 155 186 160 140 130 118 118 117 117 112 107 100 86 86 86 73 63 60 57 46 45 44 41 31 13 356 342 338 328
107 48 184 158 192 231 215 137 155 201 37 161 174 171 165 181 29 130 130 123 121 124 120 114 110 102 93 91 92 89 86 75 69 85 90 83 69 59 33 12 358 351 337 322
173 156 158 132 132 185 172 128 222 59 139 153 150 162 149 125 128 135 131 127 126 122 118 118 114 102 88 83 101 107 103 104 110 102 89 71 51 33 26 5 3 359 342 326
213 259 187 203 188 18 199 22 92 246 191 172 147 150 143 139 140 137 132 131 130 129 122 118 114 102 79 69 78 102 101 103 95 76 58 46 36 28 13 356 356 345 337 333
200 200 160 191 176 199 239 212 242 181 150 146 135 147 149 140 141 136 135 134 133 129 125 123 121 114 108 96 90 99 109 107 90 39 21 7 355 351 346 335 341 332 336 338
54 182 141 328 249 270 235 215 179 141 148 123 126 139 138 137 140 141 139 137 137 138 142 144 140 137 138 147 146 146 151 167 207 269 295 307 311 317 317 312 315 316 319 325
189 164 166 127 195 226 55 174 165 156 141 135 134 130 136 137 137 137 135 139 145 147 146 146 144 144 150 161 168 181 197 214 242 258 266 284 295 289 296 304 307 257 244 267